| time (UTC) | temp F | wind direction | speed knots | gust knots | rain 1hr in | rain 24hr in | rain mn in | humidity % | barometer mb |
| 20260509054530 | 51 | 105 | 0.9 | 4.3 | 0.00 | 0.00 | 0.00 | 57 | 1020.4 |
| 20260509053030 | 51 | 234 | 0.0 | 3.5 | 0.00 | 0.00 | 0.00 | 58 | 1020.5 |
| 20260509051534 | 50 | 126 | 0.0 | 3.5 | 0.00 | 0.00 | 0.00 | 60 | 1020.6 |
| 20260509050033 | 51 | 129 | 0.0 | 1.7 | 0.00 | 0.00 | 0.00 | 59 | 1020.6 |
| 20260509044528 | 51 | 130 | 0.0 | 2.6 | 0.00 | 0.00 | 0.00 | 57 | 1020.7 |
| 20260509043028 | 52 | 215 | 0.9 | 4.3 | 0.00 | 0.00 | 0.00 | 57 | 1020.7 |
| 20260509041528 | 52 | 272 | 0.0 | 0.9 | 0.00 | 0.00 | 0.00 | 57 | 1020.7 |
| 20260509040030 | 52 | 229 | 0.0 | 0.0 | 0.00 | 0.00 | 0.00 | 57 | 1020.7 |
| 20260509034540 | 53 | 229 | 0.0 | 1.7 | 0.00 | 0.00 | 0.00 | 56 | 1020.7 |
| 20260509033027 | 53 | 164 | 0.9 | 3.5 | 0.00 | 0.00 | 0.00 | 55 | 1020.6 |
| 20260509031528 | 53 | 128 | 0.0 | 3.5 | 0.00 | 0.00 | 0.00 | 55 | 1020.2 |
| 20260509030026 | 53 | 202 | 0.0 | 0.9 | 0.00 | 0.00 | 0.00 | 55 | 1020.0 |
| 20260509024530 | 54 | 128 | 0.9 | 3.5 | 0.00 | 0.00 | 0.00 | 55 | 1020.0 |
| 20260509023028 | 55 | 117 | 0.9 | 3.5 | 0.00 | 0.00 | 0.00 | 54 | 1019.9 |
| 20260509021524 | 56 | 139 | 0.0 | 1.7 | 0.00 | 0.00 | 0.00 | 52 | 1019.5 |
| 20260509020026 | 57 | 129 | 0.0 | 1.7 | 0.00 | 0.00 | 0.00 | 50 | 1019.4 |
| 20260509014524 | 57 | 145 | 1.7 | 7.0 | 0.00 | 0.00 | 0.00 | 48 | 1019.3 |
| 20260509013024 | 58 | 109 | 0.9 | 2.6 | 0.00 | 0.00 | 0.00 | 46 | 1019.1 |
| 20260509011523 | 58 | 149 | 0.0 | 2.6 | 0.00 | 0.00 | 0.00 | 46 | 1018.7 |
| 20260509010029 | 59 | 136 | 0.0 | 1.7 | 0.00 | 0.00 | 0.00 | 43 | 1018.5 |
| 20260509004532 | 61 | 116 | 1.7 | 6.1 | 0.00 | 0.00 | 0.00 | 39 | 1018.4 |
| 20260509003022 | 64 | 106 | 1.7 | 6.1 | 0.00 | 0.00 | 0.00 | 37 | 1018.4 |
| 20260509001525 | 64 | 107 | 0.9 | 5.2 | 0.00 | 0.00 | 0.00 | 37 | 1018.3 |
| 20260509000021 | 62 | 125 | 0.9 | 7.8 | 0.00 | 0.00 | 0.00 | 39 | 1018.3 |
| 20260508234525 | 63 | 78 | 1.7 | 10.4 | 0.00 | 0.00 | 0.00 | 37 | 1018.4 |
| 20260508233020 | 64 | 91 | 3.5 | 8.7 | 0.00 | 0.00 | 0.00 | 35 | 1018.3 |
| 20260508231519 | 64 | 109 | 2.6 | 8.7 | 0.00 | 0.00 | 0.00 | 36 | 1018.4 |
| 20260508230019 | 65 | 136 | 3.5 | 7.8 | 0.00 | 0.00 | 0.00 | 35 | 1018.0 |
| 20260508224522 | 65 | 125 | 3.5 | 9.6 | 0.00 | 0.00 | 0.00 | 35 | 1018.2 |
| 20260508223024 | 64 | 122 | 1.7 | 7.8 | 0.00 | 0.00 | 0.00 | 35 | 1018.3 |
| 20260508221517 | 65 | 125 | 2.6 | 10.4 | 0.00 | 0.00 | 0.00 | 35 | 1018.4 |
| 20260508220015 | 65 | 113 | 0.9 | 7.0 | 0.00 | 0.00 | 0.00 | 37 | 1018.5 |
| 20260508214523 | 64 | 127 | 0.9 | 9.6 | 0.00 | 0.00 | 0.00 | 37 | 1018.7 |
| 20260508213017 | 64 | 129 | 1.7 | 8.7 | 0.00 | 0.00 | 0.00 | 37 | 1018.7 |
| 20260508211513 | 64 | 109 | 3.5 | 9.6 | 0.00 | 0.00 | 0.00 | 36 | 1018.8 |
| 20260508210015 | 64 | 120 | 1.7 | 8.7 | 0.00 | 0.00 | 0.00 | 36 | 1018.9 |
| 20260508204517 | 64 | 280 | 1.7 | 6.1 | 0.00 | 0.00 | 0.00 | 37 | 1019.1 |
| 20260508203016 | 65 | 132 | 3.5 | 9.6 | 0.00 | 0.00 | 0.00 | 35 | 1019.3 |
| 20260508201511 | 63 | 110 | 2.6 | 7.0 | 0.00 | 0.00 | 0.00 | 37 | 1019.4 |
| 20260508200009 | 63 | 107 | 0.9 | 5.2 | 0.00 | 0.00 | 0.00 | 38 | 1019.4 |
| 20260508194507 | 63 | 114 | 4.3 | 8.7 | 0.00 | 0.00 | 0.00 | 39 | 1019.4 |
| 20260508193007 | 63 | 136 | 3.5 | 8.7 | 0.00 | 0.00 | 0.00 | 39 | 1019.5 |
| 20260508191505 | 62 | 105 | 2.6 | 9.6 | 0.00 | 0.00 | 0.00 | 38 | 1019.6 |
| 20260508190014 | 63 | 126 | 2.6 | 7.8 | 0.00 | 0.00 | 0.00 | 39 | 1019.5 |
| 20260508184512 | 62 | 150 | 2.6 | 7.0 | 0.00 | 0.00 | 0.00 | 38 | 1019.8 |
| 20260508183007 | 63 | 123 | 0.9 | 4.3 | 0.00 | 0.00 | 0.00 | 39 | 1020.0 |
| 20260508181501 | 60 | 224 | 1.7 | 6.1 | 0.00 | 0.00 | 0.00 | 41 | 1020.1 |
| 20260508180114 | 61 | 132 | 0.0 | 4.3 | 0.00 | 0.00 | 0.00 | 42 | 1020.4 |
| 20260508174612 | 59 | 127 | 0.9 | 2.6 | 0.00 | 0.00 | 0.00 | 44 | 1020.5 |
| 20260508173058 | 58 | 125 | 0.9 | 4.3 | 0.00 | 0.00 | 0.00 | 46 | 1020.6 |
| 20260508171555 | 58 | 313 | 0.0 | 2.6 | 0.00 | 0.00 | 0.00 | 50 | 1020.7 |
| 20260508164554 | 57 | 341 | 1.7 | 4.3 | 0.00 | 0.00 | 0.00 | 53 | 1020.7 |
| 20260508163051 | 55 | 115 | 0.9 | 3.5 | 0.00 | 0.00 | 0.00 | 58 | 1020.8 |
| 20260508161548 | 54 | 112 | 0.0 | 5.2 | 0.00 | 0.00 | 0.00 | 59 | 1020.9 |
| 20260508160047 | 54 | 215 | 1.7 | 6.1 | 0.00 | 0.00 | 0.00 | 59 | 1020.8 |
| 20260508154547 | 52 | 120 | 0.9 | 3.5 | 0.00 | 0.01 | 0.00 | 63 | 1020.8 |
| 20260508153054 | 49 | 19 | 1.7 | 5.2 | 0.00 | 0.01 | 0.00 | 64 | 1020.9 |
| 20260508151546 | 49 | 121 | 1.7 | 6.1 | 0.00 | 0.01 | 0.00 | 65 | 1021.0 |
| 20260508150044 | 47 | 39 | 2.6 | 5.2 | 0.00 | 0.01 | 0.00 | 69 | 1021.4 |
| 20260508144550 | 46 | 108 | 3.5 | 7.0 | 0.00 | 0.04 | 0.00 | 72 | 1021.3 |
| 20260508143047 | 45 | 298 | 3.5 | 8.7 | 0.00 | 0.04 | 0.00 | 73 | 1021.4 |
| 20260508141553 | 45 | 36 | 1.7 | 9.6 | 0.00 | 0.04 | 0.00 | 76 | 1021.6 |
| 20260508140041 | 44 | 132 | 1.7 | 11.3 | 0.00 | 0.04 | 0.00 | 76 | 1021.6 |
| 20260508134538 | 45 | 24 | 3.5 | 7.0 | 0.00 | 0.05 | 0.00 | 70 | 1021.5 |
| 20260508133034 | 48 | 93 | 0.0 | 3.5 | 0.00 | 0.05 | 0.00 | 59 | 1020.8 |
| 20260508131531 | 53 | 36 | 2.6 | 8.7 | 0.00 | 0.05 | 0.00 | 40 | 1020.2 |
| 20260508130037 | 52 | 319 | 2.6 | 5.2 | 0.00 | 0.05 | 0.00 | 42 | 1020.1 |
| 20260508124535 | 51 | 19 | 0.9 | 4.3 | 0.00 | 0.05 | 0.00 | 44 | 1020.1 |
| 20260508123030 | 49 | 269 | 0.9 | 2.6 | 0.00 | 0.05 | 0.00 | 48 | 1020.2 |
| 20260508121530 | 48 | 277 | 0.9 | 2.6 | 0.00 | 0.05 | 0.00 | 49 | 1020.1 |
| 20260508120027 | 48 | 279 | 0.0 | 1.7 | 0.00 | 0.05 | 0.00 | 49 | 1020.0 |
| 20260508114527 | 48 | 290 | 0.9 | 3.5 | 0.00 | 0.05 | 0.00 | 49 | 1019.8 |
| 20260508113026 | 48 | 320 | 0.9 | 3.5 | 0.00 | 0.05 | 0.00 | 48 | 1019.8 |
| 20260508111525 | 49 | 307 | 0.0 | 3.5 | 0.00 | 0.05 | 0.00 | 47 | 1019.9 |
| 20260508110027 | 49 | 313 | 1.7 | 6.1 | 0.00 | 0.05 | 0.00 | 47 | 1019.9 |
| 20260508104529 | 48 | 302 | 0.9 | 3.5 | 0.00 | 0.05 | 0.00 | 49 | 1019.8 |
| 20260508103027 | 48 | 281 | 0.0 | 3.5 | 0.00 | 0.05 | 0.00 | 49 | 1019.9 |
| 20260508101519 | 49 | 275 | 0.0 | 1.7 | 0.00 | 0.05 | 0.00 | 46 | 1020.0 |
| 20260508100019 | 50 | 276 | 0.9 | 5.2 | 0.00 | 0.05 | 0.00 | 45 | 1020.2 |
| 20260508094522 | 50 | 267 | 0.9 | 7.0 | 0.00 | 0.05 | 0.00 | 45 | 1020.2 |
| 20260508093026 | 50 | 275 | 0.0 | 1.7 | 0.00 | 0.05 | 0.00 | 45 | 1020.3 |
| 20260508091518 | 51 | 276 | 1.7 | 5.2 | 0.00 | 0.05 | 0.00 | 44 | 1020.3 |
| 20260508090013 | 51 | 281 | 1.7 | 4.3 | 0.00 | 0.05 | 0.00 | 44 | 1020.6 |
| 20260508084513 | 50 | 274 | 1.7 | 4.3 | 0.00 | 0.05 | 0.00 | 45 | 1021.0 |
| 20260508083009 | 51 | 267 | 0.0 | 1.7 | 0.00 | 0.05 | 0.00 | 43 | 1021.2 |
| 20260508081510 | 51 | 252 | 0.0 | 1.7 | 0.00 | 0.05 | 0.00 | 42 | 1021.3 |
| 20260508080004 | 53 | 313 | 0.9 | 6.1 | 0.00 | 0.05 | 0.00 | 40 | 1021.6 |
| 20260508074502 | 53 | 265 | 2.6 | 8.7 | 0.00 | 0.05 | 0.00 | 39 | 1021.6 |
| 20260508073101 | 53 | 279 | 2.6 | 8.7 | 0.00 | 0.05 | 0.00 | 38 | 1021.8 |
| 20260508071558 | 54 | 268 | 3.5 | 11.3 | 0.00 | 0.05 | 0.00 | 38 | 1021.9 |
| 20260508070055 | 54 | 264 | 2.6 | 11.3 | 0.00 | 0.05 | 0.00 | 38 | 1022.2 |
| 20260508064555 | 54 | 300 | 4.3 | 13.9 | 0.00 | 0.05 | 0.05 | 37 | 1022.1 |
| 20260508063104 | 54 | 284 | 4.3 | 13.9 | 0.00 | 0.05 | 0.05 | 37 | 1022.1 |
| 20260508061553 | 54 | 277 | 4.3 | 13.0 | 0.00 | 0.05 | 0.05 | 37 | 1022.3 |
| 20260508060053 | 54 | 284 | 6.1 | 11.3 | 0.00 | 0.05 | 0.05 | 38 | 1022.4 |